User: anonymous   Login
Location: Unspecified
(0.0000°N, 0.0000°E)
Time: 00:11:22
(UTC+00:00)
Language:

SKYMED 2 - Orbit

View from above orbital plane
View from above orbital plane
View from above satellite
View from above satellite

Ground track
Ground track

The orbit data is extracted from the following two-line orbital elements,

1 32376U 07059A   18112.54074475  .00000247  00000-0  37531-4 0  9997
2 32376  97.8935 296.8684 0001633  91.3153 268.8275 14.82157347561015
Epoch (UTC): 22 April 2018 12:58:40
Eccentricity: 0.0001633
inclination: 97.8935°
perigee height: 621 km
apogee height: 623 km
right ascension of ascending node: 296.8684°
argument of perigee: 91.3153°
revolutions per day: 14.82157347
mean anomaly at epoch: 268.8275°
orbit number at epoch: 56101

The dashed part of the orbit path shows where the satellite is in the earth's shadow,  

DLR